QPF
0.00 0.00 0.00 0.00 0.00 0.00 0.00 0.00 0.00 0.00 0.00 0.00 0.00 0.02 0.02 0.02 0.06 0.09 0.03 0.00 0.00 0.00 0.00 0.00 0.00 0.00 0.00 0.00 0.00 0.00 0.00 0.00 0.00 0.02 0.01 0.00 0.00 0.00 0.00 0.00 0.00 0.00 0.00 0.00 0.00 0.00 0.00
0.00 0.00 0.00 0.00 0.00 0.00 0.00 0.00 0.00 0.00 0.00 0.00 0.00 0.00 0.01 0.01 0.03 0.07 0.05 0.00 0.00 0.00 0.00 0.00 0.00 0.00 0.00 0.00 0.00 0.00 0.00 0.00 0.00 0.01 0.01 0.00 0.00 0.00 0.00 0.00 0.00 0.00 0.00 0.00 0.00 0.00 0.00
0.00 0.00 0.00 0.00 0.00 0.00 0.00 0.00 0.00 0.00 0.00 0.00 0.00 0.00 0.01 0.02 0.02 0.05 0.07 0.02 0.00 0.00 0.00 0.00 0.00 0.00 0.00 0.00 0.00 0.00 0.00 0.00 0.00 0.01 0.01 0.01 0.00 0.00 0.00 0.00 0.00 0.00 0.00 0.00 0.00 0.00 0.00
0.00 0.00 0.00 0.00 0.00 0.00 0.00 0.00 0.00 0.00 0.00 0.00 0.01 0.00 0.00 0.02 0.04 0.04 0.08 0.07 0.01 0.00 0.00 0.00 0.00 0.00 0.00 0.00 0.00 0.00 0.00 0.00 0.00 0.00 0.01 0.02 0.01 0.01 0.00 0.00 0.00 0.00 0.00 0.00 0.00 0.00 0.00
0.00 0.00 0.00 0.00 0.00 0.00 0.00 0.00 0.00 0.00 0.00 0.00 0.01 0.00 0.00 0.01 0.05 0.06 0.07 0.14 0.05 0.01 0.01 0.01 0.00 0.00 0.00 0.00 0.00 0.00 0.00 0.00 0.00 0.00 0.00 0.00 0.01 0.00 0.00 0.00 0.00 0.00 0.00 0.00 0.00 0.00 0.00
0.01 0.01 0.00 0.00 0.01 0.01 0.00 0.00 0.00 0.00 0.00 0.00 0.01 0.01 0.00 0.00 0.05 0.08 0.12 0.17 0.10 0.05 0.03 0.02 0.00 0.00 0.00 0.00 0.00 0.00 0.00 0.00 0.00 0.00 0.00 0.00 0.00 0.00 0.00 0.00 0.00 0.00 0.00 0.00 0.00 0.00 0.00
0.01 0.00 0.00 0.01 0.02 0.02 0.01 0.01 0.01 0.01 0.00 0.01 0.02 0.02 0.01 0.00 0.05 0.14 0.34 0.57 0.16 0.04 0.01 0.00 0.00 0.00 0.00 0.00 0.00 0.00 0.00 0.00 0.00 0.00 0.00 0.00 0.00 0.00 0.00 0.00 0.00 0.00 0.00 0.00 0.00 0.00 0.00
0.00 0.00 0.00 0.01 0.01 0.01 0.01 0.01 0.02 0.01 0.02 0.02 0.03 0.02 0.01 0.00 0.03 0.18 0.60 0.42 0.04 0.00 0.00 0.00 0.00 0.00 0.00 0.00 0.00 0.00 0.00 0.00 0.00 0.00 0.00 0.00 0.00 0.00 0.00 0.00 0.00 0.00 0.00 0.00 0.00 0.00 0.00
0.00 0.00 0.00 0.01 0.01 0.01 0.01 0.01 0.02 0.02 0.03 0.02 0.03 0.01 0.01 0.01 0.00 0.10 0.48 0.27 0.00 0.00 0.00 0.00 0.00 0.00 0.00 0.00 0.00 0.00 0.00 0.00 0.00 0.00 0.00 0.00 0.00 0.00 0.00 0.00 0.00 0.00 0.00 0.00 0.00 0.00 0.00
0.01 0.01 0.01 0.01 0.01 0.01 0.01 0.01 0.01 0.03 0.03 0.03 0.03 0.01 0.01 0.02 0.01 0.08 0.29 0.26 0.07 0.00 0.00 0.00 0.00 0.00 0.00 0.00 0.00 0.00 0.00 0.00 0.00 0.00 0.00 0.00 0.00 0.00 0.00 0.00 0.00 0.00 0.00 0.00 0.00 0.00 0.00
0.00 0.01 0.01 0.02 0.02 0.02 0.02 0.01 0.02 0.02 0.01 0.04 0.04 0.03 0.01 0.03 0.02 0.08 0.34 0.28 0.20 0.04 0.00 0.00 0.00 0.00 0.00 0.00 0.00 0.00 0.00 0.00 0.00 0.00 0.00 0.00 0.00 0.00 0.00 0.00 0.00 0.00 0.00 0.00 0.00 0.00 0.00
0.00 0.00 0.02 0.02 0.03 0.02 0.02 0.01 0.02 0.00 0.02 0.08 0.16 0.09 0.02 0.01 0.02 0.00 0.29 0.53 0.39 0.11 0.00 0.00 0.00 0.02 0.01 0.00 0.00 0.00 0.00 0.01 0.00 0.00 0.00 0.00 0.00 0.00 0.00 0.00 0.00 0.00 0.00 0.00 0.00 0.01 0.02
0.01 0.01 0.03 0.03 0.03 0.02 0.01 0.01 0.00 0.00 0.03 0.19 0.15 0.08 0.06 0.02 0.00 0.02 0.27 0.63 0.46 0.05 0.00 0.00 0.00 0.01 0.00 0.00 0.01 0.00 0.01 0.01 0.00 0.01 0.00 0.00 0.00 0.00 0.00 0.00 0.00 0.00 0.02 0.01 0.02 0.03 0.01
0.01 0.02 0.03 0.03 0.04 0.02 0.00 0.01 0.00 0.00 0.07 0.30 0.06 0.04 0.03 0.02 0.00 0.16 0.41 0.43 0.25 0.01 0.00 0.00 0.00 0.01 0.01 0.00 0.00 0.00 0.00 0.01 0.00 0.00 0.00 0.00 0.00 0.00 0.00 0.00 0.00 0.00 0.01 0.01 0.00 0.00 0.00
0.02 0.03 0.03 0.04 0.03 0.02 0.01 0.00 0.00 0.01 0.14 0.23 0.05 0.02 0.04 0.01 0.00 0.23 0.55 0.32 0.08 0.00 0.00 0.00 0.00 0.00 0.00 0.00 0.00 0.00 0.00 0.00 0.00 0.00 0.00 0.00 0.00 0.00 0.00 0.00 0.00 0.01 0.02 0.01 0.03 0.01 0.02
0.02 0.03 0.03 0.04 0.02 0.03 0.01 0.00 0.00 0.02 0.15 0.23 0.07 0.03 0.02 0.05 0.02 0.25 0.46 0.23 0.01 0.00 0.00 0.00 0.00 0.00 0.00 0.00 0.00 0.00 0.00 0.00 0.00 0.00 0.00 0.00 0.00 0.00 0.00 0.00 0.00 0.01 0.00 0.02 0.05 0.01 0.01
0.02 0.03 0.03 0.03 0.02 0.03 0.01 0.00 0.00 0.01 0.09 0.35 0.15 0.15 0.07 0.05 0.06 0.27 0.26 0.10 0.00 0.00 0.00 0.00 0.00 0.00 0.00 0.00 0.00 0.00 0.00 0.00 0.00 0.00 0.00 0.00 0.00 0.00 0.00 0.00 0.00 0.00 0.02 0.03 0.05 0.02 0.01
0.02 0.02 0.03 0.02 0.02 0.02 0.01 0.00 0.00 0.01 0.05 0.20 0.14 0.18 0.07 0.03 0.15 0.16 0.12 0.02 0.00 0.00 0.00 0.00 0.00 0.00 0.00 0.00 0.00 0.00 0.00 0.00 0.00 0.00 0.00 0.00 0.01 0.00 0.00 0.00 0.00 0.00 0.00 0.04 0.18 0.06 0.08
0.01 0.02 0.02 0.02 0.02 0.01 0.01 0.00 0.00 0.03 0.08 0.27 0.21 0.17 0.11 0.03 0.06 0.08 0.08 0.00 0.00 0.00 0.00 0.00 0.00 0.00 0.00 0.00 0.00 0.00 0.00 0.00 0.00 0.00 0.00 0.00 0.00 0.00 0.00 0.00 0.01 0.01 0.00 0.04 0.13 0.20 0.20
0.01 0.02 0.02 0.02 0.02 0.00 0.00 0.00 0.00 0.04 0.07 0.12 0.06 0.10 0.10 0.08 0.03 0.02 0.02 0.00 0.00 0.00 0.00 0.00 0.00 0.00 0.00 0.00 0.00 0.00 0.00 0.00 0.00 0.00 0.00 0.00 0.00 0.00 0.00 0.00 0.04 0.08 0.04 0.11 0.20 0.23 0.06
0.02 0.02 0.01 0.01 0.01 0.01 0.00 0.00 0.00 0.02 0.05 0.03 0.01 0.02 0.04 0.02 0.02 0.01 0.00 0.00 0.00 0.00 0.00 0.00 0.00 0.00 0.00 0.00 0.00 0.00 0.00 0.00 0.00 0.00 0.00 0.00 0.00 0.00 0.00 0.00 0.00 0.03 0.03 0.08 0.19 0.06 0.06
0.01 0.01 0.01 0.01 0.01 0.00 0.00 0.00 0.00 0.02 0.02 0.03 0.02 0.05 0.04 0.00 0.00 0.00 0.00 0.00 0.00 0.00 0.00 0.00 0.00 0.00 0.00 0.00 0.00 0.00 0.00 0.00 0.00 0.00 0.00 0.00 0.00 0.01 0.00 0.00 0.01 0.07 0.02 0.03 0.02 0.01 0.01
0.01 0.01 0.01 0.01 0.00 0.00 0.00 0.00 0.00 0.01 0.02 0.02 0.02 0.11 0.02 0.01 0.00 0.00 0.00 0.00 0.00 0.00 0.00 0.00 0.00 0.00 0.00 0.00 0.00 0.00 0.00 0.00 0.00 0.00 0.00 0.00 0.01 0.04 0.02 0.00 0.01 0.06 0.05 0.01 0.01 0.00 0.00
0.00 0.00 0.00 0.01 0.00 0.00 0.00 0.00 0.00 0.00 0.03 0.06 0.08 0.07 0.01 0.00 0.00 0.00 0.00 0.00 0.00 0.00 0.00 0.00 0.00 0.00 0.00 0.00 0.00 0.01 0.00 0.00 0.00 0.00 0.00 0.00 0.01 0.02 0.01 0.02 0.10 0.14 0.11 0.02 0.02 0.02 0.00
0.00 0.00 0.00 0.00 0.00 0.00 0.00 0.00 0.00 0.00 0.02 0.03 0.12 0.12 0.02 0.00 0.00 0.00 0.00 0.00 0.01 0.00 0.00 0.01 0.00 0.00 0.00 0.01 0.01 0.00 0.00 0.00 0.00 0.00 0.00 0.00 0.01 0.02 0.02 0.03 0.04 0.06 0.04 0.06 0.04 0.02 0.00
0.01 0.00 0.00 0.00 0.01 0.00 0.00 0.00 0.00 0.00 0.01 0.03 0.08 0.17 0.02 0.00 0.00 0.00 0.00 0.00 0.00 0.00 0.00 0.01 0.01 0.00 0.00 0.02 0.02 0.01 0.00 0.00 0.00 0.00 0.00 0.00 0.00 0.02 0.02 0.03 0.00 0.01 0.03 0.01 0.00 0.00 0.00
0.00 0.00 0.00 0.00 0.00 0.00 0.00 0.00 0.00 0.00 0.00 0.02 0.05 0.12 0.01 0.00 0.00 0.00 0.00 0.00 0.00 0.00 0.01 0.02 0.01 0.01 0.01 0.02 0.02 0.01 0.00 0.00 0.00 0.00 0.00 0.00 0.01 0.02 0.02 0.04 0.00 0.00 0.00 0.00 0.00 0.01 0.00
0.00 0.00 0.00 0.00 0.01 0.01 0.00 0.00 0.00 0.00 0.00 0.03 0.06 0.11 0.04 0.00 0.00 0.00 0.00 0.00 0.00 0.00 0.00 0.00 0.00 0.00 0.00 0.01 0.02 0.00 0.00 0.00 0.00 0.00 0.00 0.00 0.00 0.00 0.00 0.00 0.00 0.00 0.00 0.00 0.00 0.00 0.00
0.00 0.00 0.00 0.00 0.01 0.00 0.00 0.00 0.00 0.00 0.00 0.01 0.04 0.01 0.01 0.00 0.00 0.00 0.00 0.00 0.00 0.00 0.00 0.00 0.00 0.00 0.00 0.01 0.03 0.04 0.00 0.00 0.00 0.00 0.00 0.00 0.00 0.00 0.00 0.00 0.00 0.00 0.00 0.00 0.00 0.00 0.00
MSLP
1021.00 1020.74 1020.50 1019.97 1019.52 1019.19 1018.67 1018.24 1018.03 1017.64 1017.22 1016.69 1016.19 1015.67 1015.18 1014.80 1014.44 1014.02 1013.99 1014.21 1014.45 1014.51 1014.75 1014.85 1014.69 1014.67 1014.61 1013.85 1012.72 1012.91 1012.99 1012.91 1012.77 1012.96 1012.91 1013.00 1013.16 1013.33 1013.14 1012.90 1013.04 1012.57 1012.06 1012.13 1011.88 1012.01 1011.68
1020.97 1020.62 1020.39 1019.96 1019.47 1019.10 1018.61 1018.14 1017.69 1017.32 1017.08 1016.71 1016.15 1015.70 1015.18 1014.85 1014.45 1013.88 1013.59 1013.59 1014.07 1014.25 1014.33 1014.66 1014.68 1014.73 1014.37 1013.47 1012.81 1013.01 1012.74 1012.66 1012.50 1012.74 1012.90 1013.00 1013.07 1013.60 1013.41 1013.30 1013.26 1012.83 1012.68 1012.33 1012.09 1011.78 1011.66
1021.04 1020.58 1020.07 1019.72 1019.31 1018.93 1018.49 1018.06 1017.60 1017.16 1016.63 1016.24 1015.86 1015.49 1015.03 1014.54 1014.23 1013.86 1013.19 1013.33 1013.60 1013.87 1014.02 1014.32 1014.62 1014.55 1013.97 1013.17 1012.85 1012.95 1012.80 1012.69 1012.86 1012.69 1012.95 1013.18 1013.41 1013.81 1013.68 1013.57 1013.60 1013.19 1012.75 1012.00 1011.45 1011.31 1011.13
1020.71 1020.39 1019.97 1019.49 1018.98 1018.63 1018.23 1017.77 1017.31 1016.77 1016.28 1015.97 1015.33 1015.21 1014.78 1014.32 1013.88 1013.48 1013.02 1012.66 1013.04 1013.58 1013.94 1014.05 1014.43 1014.47 1013.19 1013.22 1013.15 1012.91 1012.88 1012.83 1013.05 1013.12 1012.98 1013.24 1013.54 1013.82 1013.57 1013.93 1013.56 1012.95 1012.77 1011.52 1011.00 1011.18 1010.93
1020.59 1020.09 1019.49 1019.09 1018.63 1018.38 1017.86 1017.40 1016.93 1016.32 1015.72 1015.49 1014.91 1014.75 1014.26 1013.83 1013.39 1012.95 1012.58 1012.29 1012.49 1013.23 1013.57 1013.99 1014.31 1014.30 1012.97 1013.31 1013.16 1012.53 1012.72 1012.74 1013.13 1013.23 1013.28 1013.57 1013.63 1013.84 1013.89 1013.55 1013.15 1012.76 1011.82 1011.59 1011.10 1010.91 1010.83
1020.20 1019.75 1019.19 1018.70 1018.14 1017.98 1017.52 1016.99 1016.50 1015.81 1015.24 1014.85 1014.46 1014.26 1013.82 1013.24 1012.95 1012.52 1012.23 1011.75 1012.01 1013.09 1013.69 1014.06 1014.07 1014.34 1013.10 1012.76 1012.58 1012.57 1012.98 1013.03 1013.11 1013.38 1013.75 1013.86 1013.66 1013.53 1013.58 1013.33 1012.17 1011.87 1012.27 1011.79 1011.43 1011.21 1011.18
1020.11 1019.41 1018.80 1018.19 1017.69 1017.17 1016.86 1016.28 1015.85 1015.44 1014.94 1014.60 1014.10 1013.78 1013.33 1012.79 1012.45 1012.18 1012.32 1011.16 1012.19 1013.01 1012.89 1012.27 1012.53 1012.57 1012.53 1012.66 1012.55 1012.63 1013.01 1013.18 1013.22 1013.46 1013.39 1013.88 1013.70 1013.08 1012.94 1013.15 1012.87 1013.21 1012.93 1012.45 1012.21 1011.89 1011.41
1019.79 1019.12 1018.49 1017.90 1017.28 1016.85 1016.19 1015.86 1015.18 1014.79 1014.39 1014.02 1013.60 1013.22 1012.74 1012.37 1012.03 1011.80 1011.54 1010.35 1009.76 1009.98 1011.73 1011.97 1012.27 1012.53 1012.69 1012.54 1012.33 1012.85 1013.21 1012.92 1012.98 1012.98 1013.58 1014.22 1013.47 1012.98 1013.37 1013.59 1013.77 1013.84 1013.40 1012.79 1012.37 1012.08 1011.96
1019.28 1018.72 1018.03 1017.49 1016.93 1016.33 1015.81 1015.12 1014.69 1014.22 1013.65 1013.30 1012.95 1012.64 1012.18 1011.91 1011.54 1011.19 1010.88 1009.97 1009.07 1009.00 1010.09 1011.72 1012.02 1012.10 1012.21 1012.54 1012.11 1012.50 1012.91 1012.79 1012.69 1013.10 1013.23 1012.97 1013.20 1013.16 1013.58 1013.70 1013.96 1013.96 1013.78 1013.51 1012.93 1012.33 1011.91
1018.97 1018.25 1017.70 1017.05 1016.46 1015.89 1015.38 1014.76 1014.11 1013.50 1012.92 1012.40 1012.30 1012.17 1011.82 1011.73 1011.59 1010.66 1009.97 1009.47 1009.96 1009.24 1010.57 1011.55 1011.84 1011.34 1011.84 1012.16 1012.07 1012.18 1012.47 1012.59 1013.01 1012.88 1013.41 1013.37 1013.17 1013.61 1013.76 1013.77 1013.98 1013.54 1013.58 1013.69 1013.37 1013.03 1011.97
1018.68 1017.89 1017.39 1016.83 1016.22 1015.61 1014.90 1014.25 1013.53 1012.84 1012.22 1011.69 1011.49 1011.39 1011.25 1011.46 1011.01 1010.27 1010.03 1009.35 1010.75 1010.42 1010.76 1010.75 1011.38 1011.46 1011.27 1011.67 1011.78 1012.28 1012.42 1012.61 1012.55 1012.80 1013.33 1013.02 1013.25 1013.49 1013.62 1013.59 1014.10 1013.77 1013.85 1013.82 1013.55 1013.02 1012.29
1018.44 1017.64 1016.99 1016.42 1015.84 1015.12 1014.42 1013.64 1012.89 1012.18 1011.57 1011.04 1010.68 1010.18 1009.93 1010.47 1010.60 1010.10 1009.89 1009.81 1010.48 1011.43 1009.97 1010.29 1010.84 1011.08 1011.42 1011.63 1011.67 1012.24 1012.57 1012.89 1012.83 1012.92 1013.17 1012.96 1013.50 1013.50 1013.22 1013.53 1013.85 1014.12 1014.19 1014.09 1013.55 1013.09 1011.06
1018.15 1017.28 1016.69 1016.07 1015.43 1014.60 1013.91 1013.06 1012.31 1011.57 1010.83 1010.12 1009.25 1008.36 1008.60 1008.90 1009.39 1009.54 1010.08 1010.22 1010.72 1009.54 1009.54 1009.92 1009.98 1010.47 1010.79 1011.21 1011.52 1011.73 1012.26 1012.61 1012.47 1012.91 1012.80 1012.74 1012.63 1013.11 1013.50 1013.65 1013.92 1014.25 1014.56 1013.53 1012.93 1011.89 1008.75
1017.85 1017.16 1016.48 1015.75 1014.97 1014.06 1013.47 1012.61 1011.81 1010.99 1010.31 1009.23 1007.55 1006.74 1006.86 1007.47 1008.88 1009.61 1010.07 1010.61 1009.28 1008.46 1008.48 1009.11 1009.48 1010.21 1010.56 1010.99 1011.35 1011.70 1012.03 1012.15 1012.13 1012.26 1012.52 1012.32 1012.05 1012.27 1013.00 1012.98 1012.84 1013.48 1013.75 1012.71 1011.00 1009.57 1007.79
1017.54 1016.85 1016.15 1015.44 1014.50 1013.79 1013.15 1012.35 1011.41 1010.66 1009.94 1009.04 1007.95 1007.12 1007.04 1007.28 1008.22 1009.29 1009.55 1009.76 1008.21 1007.50 1007.70 1008.46 1009.67 1010.00 1010.46 1010.80 1010.88 1011.40 1011.55 1011.34 1011.22 1011.94 1012.35 1012.11 1012.16 1012.36 1012.46 1012.53 1013.02 1013.27 1012.98 1012.68 1012.13 1010.62 1009.07
1017.36 1016.65 1015.89 1015.11 1014.19 1013.60 1012.95 1012.19 1011.21 1010.39 1009.61 1008.82 1008.45 1007.60 1007.45 1007.82 1008.50 1009.35 1009.88 1009.05 1008.08 1007.21 1007.13 1007.85 1008.28 1009.09 1009.56 1010.23 1010.53 1010.72 1010.85 1010.65 1010.82 1011.05 1011.66 1012.09 1012.40 1012.25 1012.32 1012.78 1012.63 1012.67 1012.57 1012.66 1012.42 1010.06 1007.48
1017.18 1016.41 1015.69 1014.84 1014.03 1013.43 1012.80 1011.83 1010.92 1010.16 1009.34 1008.51 1008.09 1007.95 1007.67 1008.23 1008.82 1009.66 1009.03 1008.47 1007.71 1007.53 1007.09 1007.37 1007.68 1008.38 1008.78 1009.31 1009.86 1010.13 1010.34 1010.70 1010.66 1010.79 1011.41 1011.91 1012.53 1012.37 1012.66 1011.79 1011.02 1012.06 1012.13 1012.06 1011.38 1009.86 1007.45
1016.84 1016.18 1015.46 1014.64 1013.96 1013.32 1012.65 1011.72 1010.85 1009.95 1009.14 1008.10 1007.90 1007.67 1008.22 1008.16 1009.05 1008.91 1008.87 1008.28 1007.76 1007.66 1007.37 1007.22 1007.43 1007.84 1008.36 1008.99 1009.44 1009.79 1010.00 1010.31 1010.65 1010.93 1011.10 1011.55 1012.09 1011.64 1010.79 1010.00 1010.25 1010.07 1010.06 1010.73 1010.60 1008.74 1007.24
1016.84 1016.06 1015.29 1014.55 1013.85 1013.05 1012.33 1011.66 1010.81 1009.84 1008.83 1007.33 1007.66 1007.79 1008.89 1008.45 1008.43 1008.76 1008.67 1007.95 1007.68 1007.37 1007.20 1007.17 1007.55 1007.81 1008.36 1008.70 1009.23 1009.67 1010.07 1010.41 1010.63 1010.78 1010.71 1011.31 1011.71 1011.13 1009.85 1009.69 1009.68 1009.83 1009.23 1009.31 1009.24 1008.64 1006.36
1016.68 1015.94 1015.12 1014.40 1013.76 1012.93 1012.23 1011.51 1010.75 1009.70 1008.41 1007.43 1007.65 1007.83 1008.66 1008.88 1008.32 1008.16 1007.90 1007.64 1007.51 1007.69 1007.53 1007.47 1007.84 1008.04 1008.37 1008.79 1009.34 1009.86 1010.12 1010.43 1010.66 1010.78 1011.10 1011.35 1011.02 1010.66 1009.60 1008.49 1008.64 1009.12 1008.41 1008.57 1008.73 1007.79 1004.97
1016.49 1015.81 1015.02 1014.30 1013.71 1012.96 1012.23 1011.54 1010.83 1009.81 1008.36 1007.64 1007.61 1008.34 1008.27 1008.39 1008.29 1008.05 1007.73 1007.81 1007.61 1007.54 1007.75 1007.81 1008.14 1008.12 1008.38 1008.84 1009.43 1009.81 1010.04 1010.37 1010.65 1010.74 1010.99 1011.15 1010.81 1010.40 1009.43 1008.59 1008.14 1007.65 1007.10 1006.72 1007.08 1005.93 1005.53
1016.37 1015.66 1014.84 1014.29 1013.64 1013.08 1012.42 1011.71 1011.07 1010.27 1008.85 1008.38 1008.44 1008.56 1008.63 1008.08 1008.25 1008.00 1007.69 1007.47 1007.28 1007.66 1007.58 1007.95 1007.94 1008.30 1008.57 1008.75 1009.08 1009.26 1009.74 1010.02 1009.68 1010.41 1010.54 1010.75 1010.32 1010.03 1008.68 1007.65 1007.02 1006.22 1005.61 1005.20 1004.81 1004.57 1004.04
1016.26 1015.59 1014.99 1014.32 1013.69 1013.16 1012.61 1012.12 1011.44 1010.63 1010.06 1009.53 1008.88 1008.44 1008.14 1008.01 1007.87 1007.56 1007.28 1007.30 1007.31 1007.42 1008.01 1007.94 1008.05 1008.30 1008.49 1008.68 1009.02 1009.34 1009.56 1009.72 1009.64 1009.45 1009.86 1010.14 1010.41 1010.19 1007.95 1006.83 1005.57 1004.56 1004.40 1004.18 1003.89 1003.43 1003.00
1016.06 1015.42 1014.92 1014.37 1013.76 1013.28 1012.75 1012.12 1011.73 1011.09 1010.47 1010.48 1009.98 1009.54 1008.44 1007.90 1007.39 1006.93 1007.08 1007.14 1007.29 1007.56 1007.88 1008.23 1008.36 1008.49 1008.73 1008.82 1009.03 1009.33 1009.36 1009.21 1009.20 1009.08 1009.17 1009.41 1010.04 1010.11 1008.22 1006.72 1004.91 1003.90 1003.72 1003.51 1002.89 1002.53 1002.10
1015.83 1015.29 1014.79 1014.42 1013.81 1013.31 1012.83 1012.37 1011.94 1011.49 1010.95 1010.59 1009.98 1009.45 1008.35 1007.68 1007.28 1007.10 1007.02 1007.11 1007.53 1007.92 1008.28 1008.49 1008.70 1008.87 1008.96 1009.07 1009.15 1009.02 1008.57 1008.56 1007.86 1008.15 1008.39 1009.05 1009.61 1009.25 1008.19 1006.30 1004.44 1003.27 1003.30 1003.01 1002.77 1001.95 1001.17
1015.68 1015.26 1014.77 1014.24 1013.91 1013.49 1013.04 1012.62 1012.01 1011.48 1010.98 1010.32 1009.45 1009.10 1008.52 1007.55 1006.77 1006.52 1006.74 1007.00 1007.32 1007.90 1008.53 1008.61 1008.99 1009.04 1009.15 1009.15 1009.00 1008.56 1007.70 1007.32 1007.09 1007.55 1007.87 1008.31 1008.75 1008.94 1007.69 1006.14 1003.83 1002.67 1002.41 1002.27 1002.09 1001.11 1000.76
1015.60 1015.17 1014.77 1014.22 1013.74 1013.44 1013.07 1012.86 1012.29 1011.60 1010.90 1010.31 1009.74 1009.32 1008.80 1007.71 1006.68 1006.47 1006.42 1006.77 1007.13 1007.65 1008.01 1008.51 1008.87 1009.10 1009.26 1009.03 1008.86 1008.32 1007.51 1007.00 1006.42 1006.30 1006.96 1007.40 1007.60 1007.28 1006.61 1005.65 1003.11 1001.81 1001.81 1001.80 1001.44 1001.37 1000.90
1015.50 1015.04 1014.65 1014.21 1013.72 1013.41 1013.06 1012.46 1011.98 1011.44 1010.86 1010.48 1009.89 1009.47 1009.19 1008.10 1007.05 1006.60 1006.54 1006.66 1006.92 1007.13 1007.52 1008.37 1008.93 1008.93 1009.14 1009.03 1008.68 1007.99 1007.21 1006.26 1005.97 1005.55 1005.64 1005.63 1005.70 1005.54 1005.21 1004.07 1002.23 1001.39 1001.46 1001.56 1001.42 1001.24 1000.99
1015.33 1014.88 1014.52 1014.10 1013.59 1013.09 1012.82 1012.34 1011.85 1011.36 1011.01 1010.58 1010.17 1009.45 1009.16 1008.46 1007.36 1007.04 1006.73 1006.71 1006.63 1006.50 1007.15 1007.82 1008.05 1008.34 1008.50 1008.61 1008.42 1007.94 1006.96 1006.24 1005.58 1004.80 1005.03 1004.73 1003.99 1003.64 1003.12 1001.57 1001.02 1001.19 1001.09 1001.25 1001.73 1001.75 1001.70
Thickness
5525 5523 5521 5522 5522 5522 5523 5523 5521 5521 5522 5524 5526 5530 5534 5537 5540 5543 5545 5547 5548 5552 5552 5555 5561 5564 5569 5576 5588 5594 5597 5602 5609 5614 5616 5616 5617 5619 5619 5627 5627 5630 5639 5639 5645 5644 5649
5519 5517 5515 5514 5514 5513 5513 5513 5513 5513 5511 5512 5515 5518 5522 5526 5530 5536 5539 5543 5541 5545 5548 5549 5554 5556 5563 5570 5583 5585 5592 5596 5604 5606 5609 5612 5613 5613 5615 5617 5619 5628 5628 5632 5636 5641 5643
5513 5510 5509 5507 5505 5503 5501 5500 5500 5501 5502 5503 5504 5506 5510 5515 5521 5525 5532 5535 5536 5539 5543 5544 5546 5550 5559 5569 5575 5580 5584 5588 5592 5599 5598 5604 5605 5602 5609 5607 5614 5618 5618 5630 5637 5640 5640
5511 5506 5503 5500 5497 5494 5489 5486 5486 5486 5487 5488 5490 5493 5496 5503 5511 5517 5524 5531 5530 5532 5534 5538 5540 5544 5559 5563 5566 5574 5577 5581 5585 5589 5595 5598 5599 5598 5603 5603 5606 5609 5613 5622 5635 5632 5637
5504 5502 5497 5491 5486 5480 5477 5475 5472 5470 5468 5466 5469 5472 5480 5489 5499 5509 5517 5524 5526 5526 5530 5532 5535 5538 5555 5556 5560 5572 5573 5574 5577 5582 5586 5588 5591 5588 5592 5594 5598 5605 5615 5613 5620 5630 5630
5498 5494 5489 5484 5478 5469 5461 5455 5448 5442 5439 5437 5435 5442 5454 5468 5482 5496 5507 5518 5519 5517 5520 5524 5529 5532 5548 5555 5561 5566 5566 5568 5570 5573 5572 5576 5582 5586 5588 5589 5602 5607 5600 5609 5609 5618 5617
5489 5486 5481 5476 5470 5465 5456 5448 5438 5424 5414 5406 5408 5411 5426 5443 5462 5480 5493 5511 5503 5506 5519 5536 5537 5541 5545 5550 5557 5561 5560 5560 5565 5566 5568 5570 5573 5579 5586 5589 5595 5588 5590 5591 5597 5604 5604
5482 5476 5471 5465 5459 5451 5443 5429 5417 5402 5393 5388 5386 5392 5405 5422 5441 5463 5482 5499 5519 5531 5515 5522 5528 5532 5537 5545 5551 5552 5554 5558 5561 5564 5565 5562 5567 5583 5581 5580 5576 5574 5578 5585 5592 5596 5591
5476 5467 5461 5453 5445 5436 5424 5410 5395 5389 5387 5383 5381 5382 5392 5407 5424 5450 5472 5494 5518 5526 5524 5514 5521 5528 5534 5540 5548 5549 5552 5556 5561 5558 5563 5571 5573 5574 5572 5572 5568 5567 5565 5568 5575 5585 5586
5468 5459 5450 5442 5432 5419 5403 5391 5385 5386 5387 5387 5383 5382 5386 5397 5413 5441 5469 5493 5498 5515 5502 5510 5514 5526 5531 5537 5541 5549 5552 5555 5553 5559 5558 5563 5570 5563 5563 5564 5564 5567 5571 5563 5563 5560 5562
5460 5452 5440 5428 5417 5403 5386 5380 5381 5384 5387 5389 5387 5388 5388 5393 5407 5436 5464 5484 5484 5496 5516 5511 5507 5520 5531 5535 5543 5539 5547 5549 5553 5554 5555 5562 5558 5557 5555 5558 5555 5556 5558 5555 5552 5549 5547
5454 5444 5432 5419 5403 5388 5375 5373 5379 5384 5388 5388 5390 5390 5392 5395 5406 5433 5452 5469 5477 5481 5516 5505 5510 5516 5520 5531 5538 5536 5539 5543 5549 5551 5552 5558 5554 5554 5558 5553 5550 5547 5542 5539 5541 5535 5539
5448 5438 5425 5408 5391 5377 5370 5373 5379 5385 5390 5394 5396 5399 5397 5403 5413 5426 5441 5455 5473 5510 5505 5502 5514 5521 5529 5529 5535 5539 5537 5535 5544 5536 5542 5551 5555 5550 5545 5541 5538 5532 5517 5532 5529 5526 5552
5444 5431 5416 5398 5383 5373 5368 5371 5379 5386 5390 5396 5406 5408 5408 5413 5408 5417 5433 5446 5490 5506 5515 5516 5522 5521 5525 5529 5533 5534 5534 5535 5545 5544 5541 5548 5555 5551 5542 5542 5542 5529 5526 5534 5537 5548 5556
5441 5427 5411 5392 5379 5370 5367 5370 5379 5385 5390 5394 5399 5402 5404 5411 5416 5425 5440 5458 5489 5513 5518 5513 5511 5514 5514 5526 5533 5532 5535 5541 5547 5541 5535 5542 5538 5542 5542 5541 5533 5516 5513 5522 5511 5524 5515
5437 5423 5407 5389 5377 5370 5366 5369 5379 5386 5390 5395 5392 5397 5402 5407 5416 5429 5437 5466 5488 5510 5518 5520 5522 5525 5520 5522 5530 5533 5536 5544 5543 5546 5542 5539 5531 5539 5537 5530 5527 5517 5521 5506 5496 5509 5521
5434 5422 5405 5388 5377 5372 5366 5374 5382 5388 5392 5396 5398 5399 5404 5407 5418 5425 5457 5466 5491 5505 5517 5521 5524 5523 5531 5530 5532 5534 5537 5536 5539 5540 5538 5534 5525 5532 5522 5521 5532 5510 5502 5498 5507 5507 5513
5435 5422 5405 5390 5380 5374 5371 5380 5386 5391 5395 5401 5401 5409 5406 5421 5424 5437 5459 5475 5494 5502 5512 5519 5525 5528 5530 5531 5530 5533 5533 5535 5534 5533 5532 5532 5523 5522 5531 5543 5535 5535 5528 5513 5497 5510 5498
5435 5423 5408 5394 5387 5384 5385 5387 5389 5394 5399 5412 5407 5413 5409 5431 5447 5453 5460 5484 5496 5506 5511 5518 5519 5525 5527 5528 5527 5530 5529 5528 5528 5530 5534 5531 5517 5523 5541 5536 5530 5521 5529 5523 5503 5497 5501
5436 5425 5413 5401 5394 5392 5392 5393 5393 5398 5408 5419 5422 5425 5426 5434 5452 5464 5476 5488 5496 5501 5507 5513 5513 5519 5523 5523 5524 5522 5523 5523 5524 5527 5527 5526 5527 5527 5544 5546 5536 5515 5526 5510 5493 5495 5519
5436 5428 5417 5407 5403 5399 5397 5399 5399 5406 5419 5430 5438 5435 5445 5451 5459 5469 5487 5489 5497 5500 5503 5509 5508 5515 5519 5519 5516 5514 5522 5523 5519 5522 5523 5522 5510 5522 5525 5535 5531 5524 5527 5524 5506 5509 5502
5438 5432 5423 5413 5409 5407 5406 5410 5412 5418 5431 5440 5444 5450 5450 5465 5465 5478 5489 5498 5503 5494 5503 5502 5510 5512 5516 5518 5520 5524 5521 5522 5530 5523 5523 5523 5516 5518 5523 5540 5541 5537 5534 5534 5530 5519 5513
5440 5433 5426 5418 5416 5416 5416 5418 5421 5427 5433 5438 5448 5454 5465 5470 5473 5488 5495 5498 5501 5504 5500 5506 5510 5513 5514 5517 5518 5519 5520 5520 5523 5530 5525 5524 5511 5512 5534 5546 5549 5554 5546 5542 5537 5534 5531
5443 5435 5429 5425 5424 5424 5424 5427 5427 5432 5437 5437 5444 5451 5471 5474 5484 5497 5498 5499 5500 5503 5504 5504 5508 5510 5513 5515 5516 5513 5516 5521 5520 5527 5529 5527 5512 5508 5525 5540 5554 5555 5550 5544 5547 5541 5538
5445 5438 5431 5428 5428 5429 5430 5431 5432 5434 5437 5442 5448 5457 5476 5483 5492 5495 5497 5499 5499 5499 5500 5503 5504 5506 5508 5512 5511 5514 5527 5522 5534 5530 5532 5529 5521 5520 5526 5541 5555 5561 5552 5549 5543 5551 5553
5446 5438 5431 5427 5424 5426 5428 5431 5434 5438 5443 5448 5456 5462 5473 5492 5497 5501 5500 5500 5500 5499 5493 5499 5497 5500 5505 5507 5510 5519 5534 5538 5543 5536 5526 5527 5524 5517 5528 5537 5556 5565 5559 5559 5560 5567 5566
5444 5436 5429 5423 5419 5417 5421 5425 5431 5438 5445 5452 5456 5461 5472 5491 5500 5503 5505 5503 5504 5501 5504 5497 5497 5497 5499 5507 5508 5517 5527 5536 5544 5547 5534 5531 5524 5527 5527 5533 5563 5576 5570 5568 5575 5573 5571
5441 5433 5425 5418 5412 5408 5413 5422 5430 5438 5447 5452 5458 5463 5470 5486 5498 5503 5504 5504 5503 5506 5502 5500 5500 5500 5499 5503 5508 5516 5527 5542 5542 5547 5543 5545 5544 5541 5540 5544 5559 5577 5575 5574 5578 5577 5576
5436 5428 5419 5412 5408 5402 5406 5415 5425 5435 5442 5450 5456 5465 5469 5479 5495 5494 5500 5502 5507 5511 5507 5504 5510 5506 5509 5509 5511 5514 5528 5535 5542 5551 5543 5548 5562 5566 5568 5581 5584 5580 5582 5579 5572 5574 5575